TimeEDT,TemperatureF,Dew PointF,Humidity,Sea Level PressureIn,VisibilityMPH,Wind Direction,Wind SpeedMPH,Gust SpeedMPH,PrecipitationIn,Events,Conditions,WindDirDegrees,DateUTC
12:53 AM,73.0,59.0,61,30.20,10.0,ENE,6.9,-,N/A,,Mostly Cloudy,60,2013-05-26 04:53:00
1:53 AM,72.0,57.9,61,30.18,10.0,ENE,9.2,-,N/A,,Clear,70,2013-05-26 05:53:00
2:53 AM,71.1,57.9,63,30.17,10.0,ENE,8.1,-,N/A,,Partly Cloudy,70,2013-05-26 06:53:00
3:53 AM,70.0,57.9,65,30.16,10.0,East,6.9,-,N/A,,Partly Cloudy,80,2013-05-26 07:53:00
4:53 AM,69.1,57.0,65,30.15,10.0,East,6.9,-,N/A,,Clear,100,2013-05-26 08:53:00
5:53 AM,64.9,57.9,78,30.16,10.0,Calm,Calm,-,N/A,,Clear,0,2013-05-26 09:53:00
6:53 AM,61.0,57.9,90,30.17,10.0,North,3.5,-,N/A,,Clear,10,2013-05-26 10:53:00
7:53 AM,73.9,63.0,68,30.18,10.0,Calm,Calm,-,N/A,,Clear,0,2013-05-26 11:53:00
8:53 AM,77.0,61.0,58,30.19,10.0,ENE,9.2,-,N/A,,Clear,60,2013-05-26 12:53:00
9:53 AM,78.1,62.1,58,30.21,10.0,NNE,5.8,-,N/A,,Clear,20,2013-05-26 13:53:00
10:53 AM,80.1,64.0,58,30.22,10.0,ENE,10.4,-,N/A,,Scattered Clouds,60,2013-05-26 14:53:00
11:53 AM,79.0,64.0,60,30.22,10.0,ENE,8.1,-,N/A,,Scattered Clouds,60,2013-05-26 15:53:00
12:53 PM,80.1,64.0,58,30.21,10.0,ENE,9.2,-,N/A,,Scattered Clouds,60,2013-05-26 16:53:00
1:53 PM,81.0,64.9,58,30.21,10.0,ENE,11.5,-,N/A,,Scattered Clouds,60,2013-05-26 17:53:00
2:53 PM,81.0,64.9,58,30.20,10.0,NE,6.9,17.3,N/A,,Partly Cloudy,50,2013-05-26 18:53:00
3:53 PM,80.1,64.9,60,30.18,10.0,NE,12.7,-,N/A,,Scattered Clouds,50,2013-05-26 19:53:00
4:53 PM,80.1,64.9,60,30.18,10.0,ENE,10.4,-,N/A,,Scattered Clouds,70,2013-05-26 20:53:00
5:53 PM,79.0,66.0,64,30.16,10.0,ENE,13.8,19.6,N/A,,Partly Cloudy,60,2013-05-26 21:53:00
6:53 PM,77.0,64.9,66,30.16,10.0,ENE,11.5,-,N/A,,Partly Cloudy,60,2013-05-26 22:53:00
7:53 PM,75.9,64.0,67,30.17,10.0,ENE,9.2,-,N/A,,Clear,60,2013-05-26 23:53:00
8:53 PM,75.9,64.0,67,30.17,10.0,ENE,9.2,-,N/A,,Mostly Cloudy,70,2013-05-27 00:53:00
9:53 PM,75.9,62.1,62,30.18,10.0,East,6.9,-,N/A,,Scattered Clouds,90,2013-05-27 01:53:00
10:53 PM,75.0,61.0,62,30.19,10.0,East,12.7,-,N/A,,Partly Cloudy,90,2013-05-27 02:53:00
11:53 PM,75.9,60.1,58,30.19,10.0,East,10.4,-,N/A,,Clear,90,2013-05-27 03:53:00